SAS3AG ESSA-EKCH

Flight info

Callsign SAS3AG
Flight time 0h 52m
Altitude 34000
Route PETEV N872 ELPAX DCT TOKSI N872 ERNOV
Aircraft A320/M-SDE3FGHIRWY/LB1

Departure

Time 2026-04-25 20:54
Airport Stockholm-Arlanda Airport (ESSA)

Arrival

Time 2026-04-25 21:46
Airport Copenhagen Kastrup Airport (EKCH)
Time Latitude Longitude Altitude Speed Heading
2026-04-25 20:35 59.65330 17.93139 112 ft 0 kts 251°
2026-04-25 20:47 59.65330 17.93140 112 ft 1 kts 251°
2026-04-25 20:48 59.65333 17.93154 112 ft 1 kts 251°
2026-04-25 20:48 59.65336 17.93170 112 ft 1 kts 251°
2026-04-25 20:48 59.65339 17.93191 111 ft 2 kts 251°
2026-04-25 20:48 59.65343 17.93213 111 ft 2 kts 251°
2026-04-25 20:49 59.65346 17.93237 111 ft 2 kts 274°
2026-04-25 20:49 59.65345 17.93260 110 ft 2 kts 297°
2026-04-25 20:49 59.65339 17.93280 110 ft 2 kts 317°
2026-04-25 20:49 59.65329 17.93295 111 ft 0 kts 345°
2026-04-25 20:52 59.65372 17.93273 111 ft 19 kts 346°
2026-04-25 20:52 59.65465 17.93203 112 ft 22 kts 326°
2026-04-25 20:52 59.65609 17.93242 109 ft 16 kts 64°
2026-04-25 20:52 59.65686 17.93418 110 ft 18 kts 46°
2026-04-25 20:53 59.65773 17.93595 114 ft 18 kts 44°
2026-04-25 20:53 59.65851 17.93698 115 ft 12 kts 56°
2026-04-25 20:53 59.65860 17.93759 115 ft 3 kts 77°
2026-04-25 20:53 59.65918 17.94210 121 ft 73 kts 76°
2026-04-25 20:54 59.66098 17.95637 123 ft 138 kts 76°
2026-04-25 20:54 59.66377 17.97758 338 ft 169 kts 73°
2026-04-25 20:54 59.66669 18.00080 980 ft 180 kts 72°
2026-04-25 20:54 59.66990 18.02584 1614 ft 195 kts 68°
2026-04-25 20:55 59.67465 18.05143 2210 ft 199 kts 47°
2026-04-25 20:55 59.68519 18.06691 2741 ft 185 kts 13°
2026-04-25 20:55 59.69780 18.06809 3343 ft 182 kts 344°
2026-04-25 20:55 59.70868 18.05554 3950 ft 186 kts 316°
2026-04-25 20:56 59.71454 18.03209 4552 ft 201 kts 285°
2026-04-25 20:56 59.71356 18.00361 5150 ft 212 kts 270°
2026-04-25 20:56 59.71160 17.97471 5738 ft 213 kts 271°
2026-04-25 20:56 59.70976 17.94550 6365 ft 214 kts 271°
2026-04-25 20:57 59.70672 17.91625 6987 ft 227 kts 255°
2026-04-25 20:57 59.70014 17.88692 7635 ft 237 kts 253°
2026-04-25 20:57 59.69296 17.85671 8282 ft 249 kts 249°
2026-04-25 20:57 59.68453 17.82598 8964 ft 260 kts 248°
2026-04-25 20:58 59.67561 17.79403 9660 ft 270 kts 248°
2026-04-25 20:58 59.66642 17.76089 10269 ft 279 kts 248°
2026-04-25 20:58 59.65700 17.72671 10909 ft 287 kts 248°
2026-04-25 20:58 59.64714 17.69168 11559 ft 297 kts 243°
2026-04-25 20:59 59.63257 17.66125 12224 ft 313 kts 224°
2026-04-25 20:59 59.61531 17.63409 12892 ft 320 kts 223°
2026-04-25 20:59 59.59764 17.60683 13587 ft 325 kts 223°
2026-04-25 20:59 59.57964 17.57925 14205 ft 330 kts 223°
2026-04-25 21:00 59.56137 17.55127 14828 ft 334 kts 223°
2026-04-25 21:00 59.55542 17.54216 15037 ft 335 kts 223°
2026-04-25 21:00 59.50579 17.46589 16781 ft 343 kts 223°
2026-04-25 21:01 59.48690 17.43690 17459 ft 346 kts 223°
2026-04-25 21:01 59.46764 17.40731 18149 ft 347 kts 223°
2026-04-25 21:01 59.44855 17.37797 18753 ft 349 kts 223°
2026-04-25 21:01 59.42940 17.34861 19372 ft 351 kts 223°
2026-04-25 21:02 59.41010 17.31916 19995 ft 352 kts 223°
2026-04-25 21:02 59.39100 17.29004 20636 ft 352 kts 224°
2026-04-25 21:02 59.37165 17.26057 21225 ft 354 kts 223°
2026-04-25 21:02 59.35213 17.23087 21779 ft 356 kts 224°
2026-04-25 21:03 59.33247 17.20108 22342 ft 358 kts 223°
2026-04-25 21:03 59.31273 17.17121 22923 ft 359 kts 224°
2026-04-25 21:03 59.29278 17.14097 23479 ft 360 kts 224°
2026-04-25 21:03 59.27287 17.11093 23958 ft 361 kts 224°
2026-04-25 21:04 59.25320 17.08134 24407 ft 362 kts 224°
2026-04-25 21:04 59.23296 17.05093 24834 ft 363 kts 224°
2026-04-25 21:04 59.21315 17.02118 25264 ft 365 kts 224°
2026-04-25 21:04 59.19311 16.99061 25680 ft 366 kts 226°
2026-04-25 21:05 59.17343 16.95911 26109 ft 366 kts 227°
2026-04-25 21:05 59.15395 16.92712 26526 ft 367 kts 228°
2026-04-25 21:05 59.13444 16.89483 26943 ft 369 kts 228°
2026-04-25 21:05 59.11490 16.86252 27371 ft 370 kts 228°
2026-04-25 21:06 59.09515 16.83004 27747 ft 373 kts 228°
2026-04-25 21:06 59.07523 16.79758 28127 ft 375 kts 227°
2026-04-25 21:06 59.05511 16.76504 28509 ft 377 kts 228°
2026-04-25 21:06 59.04832 16.75408 28643 ft 378 kts 228°
2026-04-25 21:07 59.01454 16.69976 29298 ft 381 kts 228°
2026-04-25 21:07 58.99408 16.66694 29697 ft 382 kts 228°
2026-04-25 21:07 58.97352 16.63401 30064 ft 384 kts 228°
2026-04-25 21:07 58.95288 16.60097 30346 ft 386 kts 228°
2026-04-25 21:08 58.93203 16.56766 30585 ft 391 kts 228°
2026-04-25 21:08 58.91096 16.53404 30821 ft 395 kts 228°
2026-04-25 21:08 58.88970 16.50015 31059 ft 399 kts 227°
2026-04-25 21:08 58.86819 16.46590 31301 ft 403 kts 227°
2026-04-25 21:09 58.82448 16.39641 31796 ft 411 kts 227°
2026-04-25 21:09 58.80230 16.36126 32032 ft 415 kts 227°
2026-04-25 21:09 58.77988 16.32580 32280 ft 419 kts 227°
2026-04-25 21:10 58.75720 16.29001 32533 ft 423 kts 227°
2026-04-25 21:10 58.73435 16.25403 32784 ft 426 kts 227°
2026-04-25 21:10 58.71130 16.21779 33039 ft 430 kts 226°
2026-04-25 21:10 58.68807 16.18138 33301 ft 432 kts 226°
2026-04-25 21:11 58.66466 16.14475 33557 ft 435 kts 226°
2026-04-25 21:11 58.64110 16.10796 33792 ft 438 kts 226°
2026-04-25 21:11 58.59294 16.03294 33866 ft 454 kts 226°
2026-04-25 21:12 58.54292 15.95519 33868 ft 470 kts 226°
2026-04-25 21:12 58.50909 15.90287 33891 ft 474 kts 226°
2026-04-25 21:13 58.44029 15.79697 33891 ft 475 kts 226°
2026-04-25 21:13 58.38882 15.71793 33887 ft 475 kts 226°
2026-04-25 21:14 58.33726 15.63899 33892 ft 475 kts 226°
2026-04-25 21:14 58.29436 15.57370 33882 ft 476 kts 226°
2026-04-25 21:15 58.24263 15.49526 33889 ft 476 kts 226°
2026-04-25 21:15 58.19087 15.41692 33882 ft 476 kts 226°
2026-04-25 21:16 58.13909 15.33882 33886 ft 476 kts 226°
2026-04-25 21:16 58.08729 15.26099 33900 ft 476 kts 226°
2026-04-25 21:17 58.03538 15.18338 33900 ft 476 kts 226°
2026-04-25 21:17 57.98339 15.10587 33907 ft 476 kts 226°
2026-04-25 21:18 57.93141 15.02864 33907 ft 476 kts 226°
2026-04-25 21:18 57.87930 14.95166 33912 ft 476 kts 226°
2026-04-25 21:19 57.82706 14.87492 33917 ft 477 kts 226°
2026-04-25 21:19 57.77491 14.79826 33909 ft 477 kts 226°
2026-04-25 21:20 57.73148 14.73464 33911 ft 477 kts 226°
2026-04-25 21:20 57.67019 14.64542 33909 ft 478 kts 226°
2026-04-25 21:21 57.61757 14.56953 33899 ft 480 kts 224°
2026-04-25 21:21 57.58827 14.53863 33556 ft 489 kts 211°
2026-04-25 21:21 57.55701 14.51404 33214 ft 485 kts 210°
2026-04-25 21:22 57.52597 14.49021 32870 ft 483 kts 210°
2026-04-25 21:22 57.49478 14.46659 32528 ft 482 kts 210°
2026-04-25 21:22 57.46334 14.44284 32196 ft 496 kts 210°
2026-04-25 21:22 57.43110 14.41830 31859 ft 505 kts 210°
2026-04-25 21:23 57.39845 14.39349 31527 ft 507 kts 210°
2026-04-25 21:23 57.36575 14.36873 31200 ft 508 kts 210°
2026-04-25 21:23 57.33396 14.34469 30886 ft 508 kts 210°
2026-04-25 21:23 57.30084 14.31960 30526 ft 508 kts 210°
2026-04-25 21:24 57.26764 14.29449 30169 ft 508 kts 211°
2026-04-25 21:24 57.23538 14.27011 29802 ft 507 kts 211°
2026-04-25 21:24 57.20278 14.24556 29415 ft 505 kts 211°
2026-04-25 21:24 57.17030 14.22123 29004 ft 502 kts 210°
2026-04-25 21:25 57.13784 14.19690 28617 ft 507 kts 211°
2026-04-25 21:25 57.10516 14.17240 28232 ft 507 kts 210°
2026-04-25 21:25 57.07253 14.14800 27857 ft 505 kts 210°
2026-04-25 21:25 57.04007 14.12380 27481 ft 502 kts 210°
2026-04-25 21:26 57.00777 14.09979 27125 ft 499 kts 211°
2026-04-25 21:26 56.97569 14.07600 26749 ft 496 kts 211°
2026-04-25 21:26 56.94380 14.05240 26385 ft 493 kts 211°
2026-04-25 21:26 56.91211 14.02896 26036 ft 490 kts 211°
2026-04-25 21:27 56.88062 14.00572 25678 ft 487 kts 211°
2026-04-25 21:27 56.84919 13.98256 25327 ft 485 kts 211°
2026-04-25 21:27 56.81802 13.95959 24989 ft 482 kts 211°
2026-04-25 21:27 56.78700 13.93672 24639 ft 480 kts 211°
2026-04-25 21:28 56.75618 13.91399 24299 ft 477 kts 211°
2026-04-25 21:28 56.72544 13.89137 23980 ft 475 kts 211°
2026-04-25 21:28 56.69487 13.86897 23640 ft 473 kts 211°
2026-04-25 21:28 56.66444 13.84680 23259 ft 470 kts 211°
2026-04-25 21:29 56.63420 13.82486 22868 ft 466 kts 211°
2026-04-25 21:29 56.60418 13.80310 22441 ft 462 kts 211°
2026-04-25 21:29 56.57449 13.78159 22031 ft 458 kts 211°
2026-04-25 21:29 56.54501 13.76025 21615 ft 454 kts 211°
2026-04-25 21:30 56.51583 13.73915 21206 ft 449 kts 211°
2026-04-25 21:30 56.48698 13.71830 20808 ft 444 kts 211°
2026-04-25 21:30 56.45842 13.69769 20422 ft 439 kts 210°
2026-04-25 21:30 56.43969 13.68419 20167 ft 436 kts 210°
2026-04-25 21:31 56.40227 13.65728 19651 ft 429 kts 210°
2026-04-25 21:31 56.37465 13.63743 19273 ft 424 kts 210°
2026-04-25 21:31 56.34780 13.61817 18909 ft 420 kts 210°
2026-04-25 21:31 56.32037 13.59853 18531 ft 415 kts 210°
2026-04-25 21:32 56.29363 13.57945 18162 ft 411 kts 210°
2026-04-25 21:32 56.26717 13.56059 17730 ft 407 kts 210°
2026-04-25 21:32 56.24093 13.54190 17315 ft 403 kts 210°
2026-04-25 21:32 56.21504 13.52348 16891 ft 399 kts 209°
2026-04-25 21:33 56.18971 13.50551 16487 ft 395 kts 209°
2026-04-25 21:33 56.16434 13.48751 16077 ft 391 kts 209°
2026-04-25 21:33 56.13918 13.46965 15678 ft 386 kts 208°
2026-04-25 21:33 56.11430 13.45202 15289 ft 382 kts 208°
2026-04-25 21:34 56.08971 13.43463 14899 ft 378 kts 208°
2026-04-25 21:34 56.06535 13.41745 14518 ft 374 kts 208°
2026-04-25 21:34 56.04128 13.40049 14136 ft 370 kts 207°
2026-04-25 21:34 56.01744 13.38374 13758 ft 366 kts 207°
2026-04-25 21:35 55.99387 13.36717 13334 ft 362 kts 207°
2026-04-25 21:35 55.97056 13.35076 12910 ft 359 kts 207°
2026-04-25 21:35 55.94742 13.33450 12500 ft 356 kts 207°
2026-04-25 21:35 55.92444 13.31840 12095 ft 353 kts 207°
2026-04-25 21:36 55.90170 13.30245 11686 ft 350 kts 206°
2026-04-25 21:36 55.87922 13.28670 11291 ft 347 kts 206°
2026-04-25 21:36 55.85682 13.27106 10900 ft 344 kts 206°
2026-04-25 21:36 55.83468 13.25569 10558 ft 339 kts 206°
2026-04-25 21:37 55.81282 13.24056 10220 ft 333 kts 205°
2026-04-25 21:37 55.79880 13.23086 9997 ft 322 kts 205°
2026-04-25 21:37 55.77180 13.21222 9558 ft 302 kts 205°
2026-04-25 21:37 55.75266 13.19901 9224 ft 289 kts 205°
2026-04-25 21:38 55.73426 13.18632 8872 ft 279 kts 205°
2026-04-25 21:38 55.71642 13.17399 8449 ft 273 kts 205°
2026-04-25 21:38 55.69911 13.16197 8001 ft 268 kts 205°
2026-04-25 21:38 55.68166 13.14987 7543 ft 264 kts 205°
2026-04-25 21:39 55.66463 13.13807 7093 ft 261 kts 205°
2026-04-25 21:39 55.64808 13.12658 6666 ft 258 kts 204°
2026-04-25 21:39 55.63142 13.11502 6225 ft 256 kts 204°
2026-04-25 21:39 55.61487 13.10351 5770 ft 255 kts 204°
2026-04-25 21:40 55.59818 13.09186 5326 ft 261 kts 204°
2026-04-25 21:40 55.58112 13.07992 4880 ft 267 kts 204°
2026-04-25 21:40 55.56378 13.06775 4418 ft 267 kts 205°
2026-04-25 21:40 55.54673 13.05572 3967 ft 262 kts 204°
2026-04-25 21:41 55.53096 13.04119 3520 ft 250 kts 226°
2026-04-25 21:41 55.52149 13.01711 3090 ft 232 kts 261°
2026-04-25 21:41 55.51914 12.98975 3015 ft 225 kts 274°
2026-04-25 21:41 55.51830 12.96207 3042 ft 227 kts 275°
2026-04-25 21:42 55.51831 12.93439 3039 ft 221 kts 287°
2026-04-25 21:42 55.52332 12.90999 3043 ft 202 kts 309°
2026-04-25 21:42 55.53069 12.89014 3002 ft 187 kts 310°
2026-04-25 21:42 55.53763 12.87161 2845 ft 177 kts 311°
2026-04-25 21:43 55.54430 12.85380 2608 ft 171 kts 311°
2026-04-25 21:43 55.55073 12.83659 2378 ft 165 kts 311°
2026-04-25 21:43 55.55693 12.81999 2155 ft 158 kts 311°
2026-04-25 21:43 55.56278 12.80428 1944 ft 148 kts 311°
2026-04-25 21:44 55.56834 12.78937 1749 ft 143 kts 311°
2026-04-25 21:44 55.57370 12.77498 1550 ft 136 kts 310°
2026-04-25 21:44 55.58323 12.74935 1205 ft 120 kts 311°
2026-04-25 21:45 55.58781 12.73708 1026 ft 120 kts 309°
2026-04-25 21:45 55.59087 12.72887 894 ft 123 kts 308°
2026-04-25 21:45 55.59721 12.71183 667 ft 125 kts 306°
2026-04-25 21:45 55.60205 12.69878 492 ft 127 kts 306°
2026-04-25 21:46 55.60688 12.68576 315 ft 126 kts 306°
2026-04-25 21:46 55.61164 12.67292 141 ft 125 kts 305°
2026-04-25 21:46 55.61636 12.66022 27 ft 115 kts 304°
2026-04-25 21:46 55.61866 12.65411 22 ft 32 kts 304°
2026-04-25 21:47 55.61987 12.65089 23 ft 30 kts 304°
2026-04-25 21:47 55.62100 12.65053 24 ft 12 kts 33°
2026-04-25 21:47 55.62137 12.65096 24 ft 7 kts 33°
2026-04-25 21:47 55.62190 12.65158 24 ft 11 kts 32°
2026-04-25 21:48 55.62260 12.65128 24 ft 13 kts 302°
2026-04-25 21:48 55.62313 12.64979 25 ft 16 kts 303°
2026-04-25 21:48 55.62378 12.64803 24 ft 18 kts 304°
2026-04-25 21:48 55.62454 12.64601 25 ft 21 kts 302°
2026-04-25 21:49 55.62525 12.64491 24 ft 8 kts
2026-04-25 21:49 55.62548 12.64502 24 ft 5 kts 14°
2026-04-25 21:49 55.62565 12.64510 24 ft 0 kts 15°